Erie, PA

6:08 PM EDT on September 19, 2017 (GMT -0400)
Erie International

Weather History for KERI - January, 2013

Change the Weather History Date:

Saturday, January 5, 2013

  Actual Average Record
Temperature  
Mean Temperature 32 °F 28 °F  
Max Temperature 35 °F 34 °F 66 °F (1997)
Min Temperature 28 °F 22 °F -7 °F (1904)
Degree Days  
Heating Degree Days 33 37  
Month to date heating degree days 183 185  
Since 1 July heating degree days 2205 2353  
Cooling Degree Days 0 0  
Month to date cooling degree days 0 0  
Year to date cooling degree days 0 0  
Moisture  
Dew Point 22 °F    
Average Humidity 70    
Maximum Humidity 78    
Minimum Humidity 61    
Precipitation  
Precipitation 0.00 in 0.11 in 0.95 in (2007)
Month to date precipitation 0.02 0.55  
Year to date precipitation 0.02 0.55  
Snow  
Snow 0.00 in 1.00 in - ()
Month to date snowfall 0.3 5.2  
Since 1 July snowfall 23.8 41.4  
Snow Depth 0.00 in    
Sea Level Pressure  
Sea Level Pressure 30.23 in    
Wind  
Wind Speed 11 mph (SSW)    
Max Wind Speed 21 mph    
Max Gust Speed 25 mph    
Visibility 9 miles    
Events      
T = Trace of Precipitation, MM = Missing Value Source: NWS Daily Summary

Daily Weather History Graph

Daily Weather History Graph

Search for Another Location

Airport or City:

Trip Planner

Search our weather history database for the weather conditions in past years. The results will help you decide how hot, cold, wet, or windy it might be!

Date:

Astronomy

Jan. 05, 2013 Rise Set
Actual Time 7:49 AM EST 5:03 PM EST
Civil Twilight 7:17 AM EST 5:35 PM EST
Nautical Twilight 6:42 AM EST 6:10 PM EST
Astronomical Twilight 6:08 AM EST 6:44 PM EST
Moon 12:50 AM EST (1/5) 11:55 AM EST (1/5)
Length of Visible Light 10h 17m
Length of Day
9h 14m
Last Quarter, 44% of the Moon is Illuminated
Jan 5
Last Quarter
Jan 11
New
Jan 18
First Quarter
Jan 26
Full
Feb 3
Last Quarter

Hourly Weather History & Observations

Time (EST) Temp. Windchill Dew Point Humidity Pressure Visibility Wind Dir Wind Speed Gust Speed Precip Events Conditions
12:51 AM 28.9 °F 19.2 °F 21.0 °F 72% 30.20 in 10.0 mi SW 11.5 mph 18.4 mph N/A   Overcast
1:51 AM 30.0 °F 20.0 °F 23.0 °F 75% 30.21 in 10.0 mi SW 12.7 mph - N/A   Overcast
2:51 AM 30.0 °F 21.7 °F 23.0 °F 75% 30.23 in 10.0 mi SW 9.2 mph - N/A   Overcast
3:51 AM 30.2 °F 23.4 °F 24.8 °F 80% 30.22 in 9.0 mi WSW 6.9 mph - N/A   Overcast
4:32 AM 30.2 °F 22.6 °F 24.8 °F 80% 30.23 in 9.0 mi WSW 8.1 mph - N/A   Overcast
4:51 AM 30.2 °F 24.3 °F 24.8 °F 80% 30.23 in 9.0 mi SW 5.8 mph - N/A   Overcast
5:18 AM 28.4 °F 19.1 °F 23.0 °F 80% 30.24 in 10.0 mi SSW 10.4 mph - N/A   Overcast
5:51 AM 28.9 °F 19.2 °F 23.0 °F 78% 30.27 in 9.0 mi SSW 11.5 mph - N/A   Overcast
6:51 AM 28.4 °F 18.5 °F 21.2 °F 74% 30.27 in 9.0 mi SW 11.5 mph - N/A   Overcast
7:51 AM 28.0 °F 20.8 °F 21.9 °F 78% 30.31 in 9.0 mi South 6.9 mph - N/A   Overcast
8:51 AM 28.4 °F 20.4 °F 21.2 °F 74% 30.29 in 8.0 mi SSW 8.1 mph - N/A   Overcast
9:51 AM 28.4 °F 18.0 °F 23.0 °F 80% 30.31 in 8.0 mi SSW 12.7 mph - N/A   Overcast
10:51 AM 28.9 °F 18.6 °F 21.9 °F 75% 30.35 in 8.0 mi South 12.7 mph - N/A   Overcast
11:51 AM 28.9 °F 19.8 °F 21.0 °F 72% 30.32 in 9.0 mi SSW 10.4 mph - N/A   Overcast
12:51 PM 28.9 °F 19.2 °F 21.0 °F 72% 30.29 in 9.0 mi South 11.5 mph 20.7 mph N/A   Overcast
1:51 PM 30.0 °F 21.1 °F 21.0 °F 69% 30.26 in 8.0 mi South 10.4 mph - N/A   Overcast
2:51 PM 30.9 °F 23.5 °F 21.9 °F 69% 30.24 in 9.0 mi South 8.1 mph - N/A   Scattered Clouds
3:51 PM 30.9 °F 21.7 °F 21.0 °F 67% 30.23 in 9.0 mi South 11.5 mph - N/A   Clear
4:51 PM 30.9 °F 22.2 °F 21.0 °F 67% 30.20 in 9.0 mi SSE 10.4 mph - N/A   Clear
5:51 PM 30.9 °F 21.7 °F 21.0 °F 67% 30.19 in 10.0 mi South 11.5 mph - N/A   Clear
6:51 PM 30.9 °F 21.2 °F 21.9 °F 69% 30.18 in 10.0 mi South 12.7 mph - N/A   Clear
7:51 PM 32.0 °F 22.5 °F 21.9 °F 66% 30.17 in 10.0 mi South 12.7 mph - N/A   Scattered Clouds
8:51 PM 33.1 °F 23.0 °F 21.9 °F 64% 30.15 in 10.0 mi South 15.0 mph 24.2 mph N/A   Overcast
9:51 PM 34.0 °F 24.2 °F 21.9 °F 61% 30.11 in 10.0 mi SSW 15.0 mph 23.0 mph N/A   Overcast
10:51 PM 34.0 °F 24.2 °F 23.0 °F 64% 30.11 in 10.0 mi SSW 15.0 mph 20.7 mph N/A   Overcast
11:51 PM 35.6 °F 26.6 °F 24.8 °F 65% 30.07 in 9.0 mi SSW 13.8 mph - N/A   Overcast